Other Surface Observations
Issued by NWS Jacksonville, FL

Home | Current Version | Previous Version | Text Only | Print | Product List | Glossary On
Versions: 1 2 3 4 5 6 7 8 9 10 11 12 13 14 15 16 17 18 19 20 21 22 23 24 25 26 27 28 29 30 31 32 33 34 35 36 37 38 39 40 41 42 43 44 45 46 47 48 49 50
000
SXUS52 KJAX 301013
OSOJAX
OTHER SURFACE OBSERVATIONS
NATIONAL WEATHER SERVICE JACKSONVILLE FL
600 AM EDT MON MAR 30 2015

FLZ020>025-030>033-035>038-040-301100-
...FLORIDA...

CITY           SKY/WX    TMP DP  RH WIND       PRES   REMARKS
CECIL FIELD    NOT AVBL
HERLONG FIELD  NOT AVBL
FERNANDINA BCH NOT AVBL
LAKE CITY      FAIR      41  41 100 CALM      30.24F
JUNIPER SPGS   NOT AVBL
BUNNELL        NOT AVBL
KEYSTONE HGTS  FAIR      41  39  93 CALM      30.25F
$$

GAZ132>136-149>154-162>166-301100-
...GEORGIA...

CITY           SKY/WX    TMP DP  RH WIND       PRES   REMARKS
JESUP          FAIR      37  37 100 CALM      30.24S
HOMERVILLE     FAIR      45  43  93 CALM      30.25R
SWAINSBORO     FAIR      45  32  61 S6        30.20F
CORDELE        PTSUNNY   49  40  71 SW3       30.21S
EASTMAN        PTSUNNY   46  43  88 S6        30.22F
$$

PLEASE NOTE:  THESE OBSERVATIONS ARE NOT QUALITY CONTROLLED AND MAY
NOT BE AVAILABLE AT ALL TIMES.
$$


USA.gov is the U.S. government's official web portal to all federal, state and local government web resources and services.